Погода в Баллари

Индия     15°08′23″N   76°55′12″E
темп.,
°C
ветер,
м/с
пор.,
м/с
влажн.,
%
обл.,
%
осадки,
мм/ч
давл.,
гПа
погр.,
м
8 декабря, ср
ср823:30+23юв22580 0.0 101313
02:30+21юв23730 0.0 101239
05:30+20ююв22790 0.0 101314
08:30+23в34680 0.0 1015285
11:30+28в44480 0.0 10141540
14:30+30вюв44420 0.0 10111955
17:30+27вюв235613 0.0 101126
20:30+24юв487544 0.0 1014176
9 декабря, чт
чт923:30+23вюв49820 0.1 1014231
02:30+21вюв368927 0.1 1012148
05:30+21вюв389187 0.3 1013276
08:30+23вюв4782100 0.1 1016397
11:30+26вюв5668100 0.1 1015843
14:30+29в455517 0.0 10111399
17:30+27вюв345817 0.0 101261
20:30+24в511783 0.1 1015400
10 декабря, пт
пт1023:30+22вюв5118696 0.1 1015513
02:30+22в4985100 0.1 1014568
05:30+22в4884100 0.1 1015579
08:30+22вюв478661 0.0 1017525
11:30+27вюв566119 0.0 10161220
14:30+29вюв454825 0.0 10121459
17:30+26вюв366150 0.0 1012110
20:30+24в487497 0.1 1015220
11 декабря, сб
сб1123:30+23вюв487735 0.3 1015268
02:30+21вюв398897 0.3 1014250
05:30+20юв389271 0.4 1014226
08:30+23вюв47760 0.0 1016488
11:30+28в574713 0.0 10151460
14:30+29в5640100 0.0 10121854
17:30+26в3656100 0.0 101397
20:30+24юв386435 0.0 1015179
12 декабря, вс
вс1223:30+22вюв49794 0.0 1016315
02:30+21юв39904 0.0 1014310
05:30+20юв39950 0.0 1014294
08:30+23вюв588215 0.0 1017517
11:30+27вюв67545 0.0 10161355
14:30+29в6646100 0.0 10121915
17:30+26вюв5858100 0.0 1012221
20:30+23вюв61176100 0.0 1015382